Time,TemperatureF,DewpointF,PressureIn,WindDirection,WindDirectionDegrees,WindSpeedMPH,WindSpeedGustMPH,Humidity,HourlyPrecipIn,Conditions,Clouds,dailyrainin,SolarRadiationWatts/m^2,SoftwareType,DateUTC
2013-05-17 00:03:00,58.0,56.0,-100.00,North,0,6.0,12.0,92,0.00,,,0.37,0.000000,,2013-05-17 04:03:00,
2013-05-17 00:34:00,57.0,55.0,-100.00,North,0,5.0,10.0,93,0.00,,,0.37,0.000000,,2013-05-17 04:34:00,
2013-05-17 00:43:00,57.0,55.0,-100.00,North,0,5.0,10.0,93,0.00,,,0.37,0.000000,,2013-05-17 04:43:00,
2013-05-17 00:53:00,57.0,55.0,-100.00,North,0,5.0,10.0,93,0.00,,,0.37,0.000000,,2013-05-17 04:53:00,
2013-05-17 01:03:00,57.0,55.0,-100.00,North,0,5.0,10.0,93,0.00,,,0.37,0.000000,,2013-05-17 05:03:00,
2013-05-17 01:32:00,57.0,55.0,-100.00,North,0,5.0,10.0,94,0.00,,,0.37,0.000000,,2013-05-17 05:32:00,
2013-05-17 01:43:00,57.0,55.0,-100.00,North,0,5.0,10.0,94,0.00,,,0.37,0.000000,,2013-05-17 05:43:00,
2013-05-17 01:52:00,57.0,55.0,-100.00,North,0,5.0,10.0,94,0.00,,,0.37,0.000000,,2013-05-17 05:52:00,
2013-05-17 02:02:00,57.0,55.0,-100.00,North,0,5.0,10.0,94,0.00,,,0.37,0.000000,,2013-05-17 06:02:00,
2013-05-17 02:32:00,56.0,56.0,-100.00,North,0,4.0,9.0,100,0.00,,,0.37,0.000000,,2013-05-17 06:32:00,
2013-05-17 02:42:00,56.0,56.0,-100.00,North,0,4.0,9.0,100,0.00,,,0.37,0.000000,,2013-05-17 06:42:00,
2013-05-17 02:52:00,56.0,56.0,-100.00,North,0,4.0,9.0,100,0.00,,,0.37,0.000000,,2013-05-17 06:52:00,
2013-05-17 03:02:00,56.0,56.0,-100.00,North,0,4.0,9.0,100,0.00,,,0.37,0.000000,,2013-05-17 07:02:00,
2013-05-17 03:32:00,56.0,56.0,-100.00,North,0,5.0,12.0,100,0.00,,,0.37,0.000000,,2013-05-17 07:32:00,
2013-05-17 03:43:00,56.0,56.0,-100.00,North,0,5.0,12.0,100,0.00,,,0.37,0.000000,,2013-05-17 07:43:00,
2013-05-17 03:53:00,56.0,56.0,-100.00,North,0,5.0,12.0,100,0.00,,,0.37,0.000000,,2013-05-17 07:53:00,
2013-05-17 04:02:00,56.0,56.0,-100.00,North,0,5.0,12.0,100,0.00,,,0.37,0.000000,,2013-05-17 08:02:00,
2013-05-17 04:34:00,56.0,56.0,-100.00,North,0,5.0,10.0,100,0.00,,,0.33,0.000000,,2013-05-17 08:34:00,
2013-05-17 04:43:00,56.0,56.0,-100.00,North,0,5.0,10.0,100,0.00,,,0.33,0.000000,,2013-05-17 08:43:00,
2013-05-17 04:52:00,56.0,56.0,-100.00,North,0,5.0,10.0,100,0.00,,,0.33,0.000000,,2013-05-17 08:52:00,
2013-05-17 05:02:00,56.0,56.0,-100.00,North,0,5.0,10.0,100,0.00,,,0.33,0.000000,,2013-05-17 09:02:00,
2013-05-17 05:33:00,56.0,56.0,-100.00,North,0,5.0,9.0,100,0.00,,,0.25,0.000000,,2013-05-17 09:33:00,
2013-05-17 05:42:00,56.0,56.0,-100.00,North,0,5.0,9.0,100,0.00,,,0.25,0.000000,,2013-05-17 09:42:00,
2013-05-17 05:53:00,56.0,56.0,-100.00,North,0,5.0,9.0,100,0.00,,,0.25,0.000000,,2013-05-17 09:53:00,
2013-05-17 06:03:00,56.0,56.0,-100.00,North,0,5.0,9.0,100,0.00,,,0.25,0.000000,,2013-05-17 10:03:00,
2013-05-17 06:33:00,56.0,56.0,-100.00,North,0,5.0,9.0,100,0.00,,,0.09,1.000000,,2013-05-17 10:33:00,
2013-05-17 06:42:00,56.0,56.0,-100.00,North,0,5.0,9.0,100,0.00,,,0.09,1.000000,,2013-05-17 10:42:00,
2013-05-17 06:54:00,56.0,56.0,-100.00,North,0,5.0,9.0,100,0.00,,,0.09,1.000000,,2013-05-17 10:54:00,
2013-05-17 07:02:00,56.0,56.0,-100.00,North,0,5.0,9.0,100,0.00,,,0.09,1.000000,,2013-05-17 11:02:00,
2013-05-17 07:34:00,56.0,56.0,-100.00,North,0,5.0,9.0,100,0.00,,,0.00,20.000000,,2013-05-17 11:34:00,
2013-05-17 07:42:00,56.0,56.0,-100.00,North,0,5.0,9.0,100,0.00,,,0.00,20.000000,,2013-05-17 11:42:00,
2013-05-17 07:53:00,56.0,56.0,-100.00,North,0,5.0,9.0,100,0.00,,,0.00,20.000000,,2013-05-17 11:53:00,
2013-05-17 08:03:00,56.0,56.0,-100.00,North,0,5.0,9.0,100,0.00,,,0.00,20.000000,,2013-05-17 12:03:00,
2013-05-17 08:33:00,57.0,57.0,-100.00,North,0,3.0,9.0,100,0.00,,,0.00,87.000000,,2013-05-17 12:33:00,
2013-05-17 08:43:00,57.0,57.0,-100.00,North,0,3.0,9.0,100,0.00,,,0.00,87.000000,,2013-05-17 12:43:00,
2013-05-17 08:53:00,57.0,57.0,-100.00,North,0,3.0,9.0,100,0.00,,,0.00,87.000000,,2013-05-17 12:53:00,
2013-05-17 09:03:00,57.0,57.0,-100.00,North,0,3.0,9.0,100,0.00,,,0.00,87.000000,,2013-05-17 13:03:00,
2013-05-17 09:33:00,62.0,58.0,-100.00,North,0,5.0,11.0,88,0.00,,,0.00,312.000000,,2013-05-17 13:33:00,
2013-05-17 09:42:00,62.0,58.0,-100.00,North,0,5.0,11.0,88,0.00,,,0.00,312.000000,,2013-05-17 13:42:00,
2013-05-17 09:52:00,62.0,58.0,-100.00,North,0,5.0,11.0,88,0.00,,,0.00,312.000000,,2013-05-17 13:52:00,
2013-05-17 10:02:00,62.0,58.0,-100.00,North,0,5.0,11.0,88,0.00,,,0.00,312.000000,,2013-05-17 14:02:00,
2013-05-17 10:34:00,65.0,56.0,-100.00,North,0,4.0,9.0,74,0.00,,,0.00,572.000000,,2013-05-17 14:34:00,
2013-05-17 10:43:00,65.0,56.0,-100.00,North,0,4.0,9.0,74,0.00,,,0.00,572.000000,,2013-05-17 14:43:00,
2013-05-17 10:53:00,65.0,56.0,-100.00,North,0,4.0,9.0,74,0.00,,,0.00,572.000000,,2013-05-17 14:53:00,
2013-05-17 11:03:00,65.0,56.0,-100.00,North,0,4.0,9.0,74,0.00,,,0.00,572.000000,,2013-05-17 15:03:00,
2013-05-17 11:37:00,68.0,54.0,-100.00,North,0,5.0,11.0,62,0.00,,,0.00,686.000000,,2013-05-17 15:37:00,
2013-05-17 11:47:00,68.0,54.0,-100.00,North,0,5.0,11.0,62,0.00,,,0.00,686.000000,,2013-05-17 15:47:00,
2013-05-17 11:57:00,68.0,54.0,-100.00,North,0,5.0,11.0,62,0.00,,,0.00,686.000000,,2013-05-17 15:57:00,
2013-05-17 12:07:00,68.0,54.0,-100.00,North,0,5.0,11.0,62,0.00,,,0.00,686.000000,,2013-05-17 16:07:00,
2013-05-17 12:08:00,70.0,55.0,-100.00,North,0,5.0,10.0,58,0.00,,,0.00,824.000000,,2013-05-17 16:08:00,
2013-05-17 12:37:00,70.0,55.0,-100.00,North,0,5.0,10.0,58,0.00,,,0.00,824.000000,,2013-05-17 16:37:00,
2013-05-17 12:50:00,70.0,55.0,-100.00,North,0,5.0,10.0,58,0.00,,,0.00,824.000000,,2013-05-17 16:50:00,
2013-05-17 12:56:00,70.0,55.0,-100.00,North,0,5.0,10.0,58,0.00,,,0.00,824.000000,,2013-05-17 16:56:00,
2013-05-17 13:08:00,73.0,55.0,-100.00,North,0,5.0,12.0,53,0.00,,,0.00,846.000000,,2013-05-17 17:08:00,
2013-05-17 13:40:00,73.0,-99.9,-100.00,North,0,5.0,12.0,53,0.00,,,0.00,846.000000,,2013-05-17 17:40:00,
2013-05-17 13:49:00,73.0,55.0,-100.00,North,0,5.0,12.0,53,0.00,,,0.00,846.000000,,2013-05-17 17:49:00,
2013-05-17 14:00:00,73.0,-99.9,-100.00,North,0,5.0,12.0,53,0.00,,,0.00,846.000000,,2013-05-17 18:00:00,
2013-05-17 14:08:00,74.0,51.0,-100.00,North,0,7.0,14.0,44,0.00,,,0.00,937.000000,,2013-05-17 18:08:00,
2013-05-17 14:40:00,74.0,-99.9,-100.00,North,0,7.0,14.0,44,0.00,,,0.00,937.000000,,2013-05-17 18:40:00,
2013-05-17 14:50:00,-999.0,-99.9,-100.00,North,0,7.0,14.0,44,0.00,,,0.00,937.000000,,2013-05-17 18:50:00,
2013-05-17 15:00:00,74.0,-99.9,-100.00,North,0,7.0,14.0,44,0.00,,,0.00,937.000000,,2013-05-17 19:00:00,
2013-05-17 15:08:00,72.0,48.0,-100.00,North,0,5.0,12.0,43,0.00,,,0.00,794.000000,,2013-05-17 19:08:00,
2013-05-17 15:40:00,72.0,48.0,-100.00,North,0,5.0,12.0,43,0.00,,,0.00,794.000000,,2013-05-17 19:40:00,
2013-05-17 15:51:00,72.0,48.0,-100.00,North,0,5.0,12.0,43,0.00,,,0.00,794.000000,,2013-05-17 19:51:00,
2013-05-17 16:01:00,-999.0,-99.9,-100.00,North,0,5.0,12.0,43,0.00,,,0.00,794.000000,,2013-05-17 20:01:00,
2013-05-17 16:40:00,75.0,48.0,-100.00,North,0,6.0,16.0,38,0.00,,,0.00,776.000000,,2013-05-17 20:40:00,
2013-05-17 16:50:00,75.0,48.0,-100.00,North,0,6.0,16.0,38,0.00,,,0.00,776.000000,,2013-05-17 20:50:00,
2013-05-17 16:58:00,75.0,48.0,-100.00,North,0,6.0,16.0,38,0.00,,,0.00,776.000000,,2013-05-17 20:58:00,
2013-05-17 17:07:00,75.0,48.0,-100.00,North,0,6.0,16.0,38,0.00,,,0.00,776.000000,,2013-05-17 21:07:00,
2013-05-17 17:39:00,74.0,47.0,-100.00,North,0,5.0,13.0,38,0.00,,,0.00,647.000000,,2013-05-17 21:39:00,
2013-05-17 17:49:00,74.0,47.0,-100.00,North,0,5.0,13.0,38,0.00,,,0.00,647.000000,,2013-05-17 21:49:00,
2013-05-17 17:58:00,74.0,47.0,-100.00,North,0,5.0,13.0,38,0.00,,,0.00,647.000000,,2013-05-17 21:58:00,
2013-05-17 18:07:00,74.0,47.0,-100.00,North,0,5.0,13.0,38,0.00,,,0.00,647.000000,,2013-05-17 22:07:00,
2013-05-17 18:38:00,74.0,46.0,-100.00,North,0,5.0,13.0,37,0.00,,,0.00,466.000000,,2013-05-17 22:38:00,
2013-05-17 18:47:00,74.0,46.0,-100.00,North,0,5.0,13.0,37,0.00,,,0.00,466.000000,,2013-05-17 22:47:00,
2013-05-17 18:55:00,74.0,46.0,-100.00,North,0,5.0,13.0,37,0.00,,,0.00,466.000000,,2013-05-17 22:55:00,
2013-05-17 19:04:00,74.0,46.0,-100.00,North,0,5.0,13.0,37,0.00,,,0.00,466.000000,,2013-05-17 23:04:00,
2013-05-17 19:38:00,72.0,47.0,-100.00,North,0,3.0,10.0,41,0.00,,,0.00,257.000000,,2013-05-17 23:38:00,
2013-05-17 19:47:00,72.0,47.0,-100.00,North,0,3.0,10.0,41,0.00,,,0.00,257.000000,,2013-05-17 23:47:00,
2013-05-17 19:54:00,72.0,47.0,-100.00,North,0,3.0,10.0,41,0.00,,,0.00,257.000000,,2013-05-17 23:54:00,
2013-05-17 20:02:00,72.0,47.0,-100.00,North,0,3.0,10.0,41,0.00,,,0.00,257.000000,,2013-05-18 00:02:00,
2013-05-17 20:34:00,67.0,47.0,-100.00,North,0,0.0,6.0,48,0.00,,,0.00,78.000000,,2013-05-18 00:34:00,
2013-05-17 20:45:00,67.0,47.0,-100.00,North,0,0.0,6.0,48,0.00,,,0.00,78.000000,,2013-05-18 00:45:00,
2013-05-17 20:54:00,67.0,47.0,-100.00,North,0,0.0,6.0,48,0.00,,,0.00,78.000000,,2013-05-18 00:54:00,
2013-05-17 21:03:00,67.0,47.0,-100.00,North,0,0.0,6.0,48,0.00,,,0.00,78.000000,,2013-05-18 01:03:00,
2013-05-17 21:32:00,63.0,48.0,-100.00,North,0,0.0,0.0,57,0.00,,,0.00,5.000000,,2013-05-18 01:32:00,
2013-05-17 21:43:00,63.0,48.0,-100.00,North,0,0.0,0.0,57,0.00,,,0.00,5.000000,,2013-05-18 01:43:00,
2013-05-17 21:52:00,63.0,48.0,-100.00,North,0,0.0,0.0,57,0.00,,,0.00,5.000000,,2013-05-18 01:52:00,
2013-05-17 22:03:00,63.0,48.0,-100.00,North,0,0.0,0.0,57,0.00,,,0.00,5.000000,,2013-05-18 02:03:00,
2013-05-17 22:32:00,62.0,48.0,-100.00,North,0,0.0,3.0,60,0.00,,,0.00,0.000000,,2013-05-18 02:32:00,
2013-05-17 22:43:00,62.0,48.0,-100.00,North,0,0.0,3.0,60,0.00,,,0.00,0.000000,,2013-05-18 02:43:00,
2013-05-17 22:54:00,62.0,48.0,-100.00,North,0,0.0,3.0,60,0.00,,,0.00,0.000000,,2013-05-18 02:54:00,
2013-05-17 23:03:00,62.0,48.0,-100.00,North,0,0.0,3.0,60,0.00,,,0.00,0.000000,,2013-05-18 03:03:00,
2013-05-17 23:33:00,62.0,46.0,-100.00,North,0,2.0,5.0,56,0.00,,,0.00,0.000000,,2013-05-18 03:33:00,
2013-05-17 23:43:00,62.0,46.0,-100.00,North,0,2.0,5.0,56,0.00,,,0.00,0.000000,,2013-05-18 03:43:00,
2013-05-17 23:53:00,62.0,46.0,-100.00,North,0,2.0,5.0,56,0.00,,,0.00,0.000000,,2013-05-18 03:53:00,